Location: *
(32.2676°N, 35.5769°E)
Time: 13:38:14
(UTC+00:00)

Daily predictions for brighter satellites

Satellite Brightness Start Highest point End
(mag) Time Altitude Azimuth Time Altitude Azimuth Time Altitude Azimuth
GPS 2-04 Rocket1 3.6 16:37:31 10° W 16:41:18 41° SSW 16:45:13 10° SE
Meteor 1-27 Rocket 3.9 16:37:18 10° N 16:43:03 57° E 16:48:40 10° SSE
Cosmos 1933 Rocket 3.5 16:39:11 10° S 16:43:30 74° E 16:47:49 10° N
H-2A R/B 3.5 16:44:17 10° ESE 16:47:40 18° ENE 16:51:00 10° NNE
Cosmos 1943 3.9 16:43:33 10° SSW 16:49:07 61° WNW 16:54:45 10° NNE
USA 186 2.5 16:53:53 11° SE 16:55:35 21° ENE 16:57:29 10° NNE
NOSS 3-2 (C) 4.2 16:47:45 10° NNW 16:55:41 88° WSW 17:04:16 10° SSE
RESURS DK-1 2.9 16:56:04 10° SSW 17:00:11 64° WNW 17:04:19 10° NNE
ASTRO E2 2.8 16:57:39 10° WSW 17:01:32 56° SSE 17:05:07 12° E
Unknown 3.6 16:59:38 10° NNW 17:02:13 33° NE 17:04:04 15° ESE
Cosmos 1315 Rocket 3.4 16:58:52 10° N 17:02:46 40° E 17:06:39 10° SSE
ARGOS 4.1 17:01:53 11° SE 17:06:12 28° ENE 17:10:40 10° NNE
Cosmos 1812 2.6 17:04:25 10° N 17:08:17 83° E 17:12:08 10° S
Cosmos 1943 Rocket 2.3 17:02:47 10° NNW 17:08:21 79° WSW 17:13:57 10° SSE
Cosmos 1862 Rocket 4.3 17:04:36 10° NNW 17:09:00 57° W 17:13:22 10° S
Sakura Rocket 4.2 17:07:40 10° WSW 17:11:05 25° SSW 17:13:36 13° SSE
Ariane Rocket 4.0 17:07:47 10° S 17:12:38 47° W 17:17:30 10° NNW
Cosmos 1869 Rocket 3.6 17:10:18 10° S 17:14:28 52° E 17:18:41 10° NNE
Hubble Space Telescope 1.1 17:14:22 10° WSW 17:18:21 49° S 17:20:49 21° ESE
Atlas Centaur 2 3.3 17:17:46 10° WSW 17:21:17 23° SSW 17:24:41 13° SSE
Meteor 1-25 Rocket 4.2 17:20:58 10° S 17:26:35 74° E 17:32:19 10° NNE
FREGAT/IRIS 4.1 17:24:06 10° SSW 17:26:42 34° W 17:29:18 10° NNW
Abrixas rocket 3.4 17:24:11 10° WSW 17:27:05 39° NW 17:30:01 10° NE
Meteor 1-14 Rocket 4.4 17:22:29 10° S 17:28:19 56° E 17:34:08 10° NNE
Cosmos 1656 Rocket 3.9 17:23:37 10° N 17:29:07 53° ENE 17:32:38 21° SE
ADEOS Rocket 3.1 17:30:19 10° NNE 17:36:19 59° ESE 17:42:57 10° S
SPOT 3 Rocket 3.7 17:36:04 10° S 17:41:15 76° WSW 17:46:27 10° NNW
CENTAUR R/B 3.6 17:35:01 10° NW 17:43:19 66° WSW 17:51:30 12° SSE
CZ-2C R/B 3.6 17:42:43 29° E 17:43:46 32° ENE 17:47:58 10° N
OAO 3 Rocket 3.1 17:41:05 10° WSW 17:45:56 88° NNW 17:48:35 26° ENE
Cosmos 2221 Rocket 4.0 17:41:57 10° N 17:46:08 41° E 17:46:55 37° ESE
Cosmos 2369 Rocket 3.6 17:42:33 10° NW 17:47:40 37° WSW 17:52:45 10° S
OAO 2 Rocket 3.6 17:44:37 10° W 17:49:45 63° N 17:52:32 26° ENE
Okean 1 3.6 17:46:05 10° N 17:49:53 44° E 17:50:07 43° E
Shenzhou-11 Module 2.2 17:50:18 10° WSW 17:53:02 57° NNW 17:53:06 57° NNW
Resurs 1-3 3.5 17:51:30 36° SSE 17:53:11 71° ENE 17:57:33 10° N
Cosmos 2084 4.5 17:49:49 10° NW 17:53:41 39° WSW 17:55:50 22° S
Spot 2 Rocket 4.3 17:53:20 30° E 17:53:58 31° ENE 17:58:26 10° N
Unknown 3.6 17:51:55 10° NNW 17:55:20 48° NE 17:55:26 48° NE
Unknown 3.1 17:53:32 10° NW 17:56:56 63° NE 17:56:56 63° NE
Nadezhda 2 Rocket 4.3 17:53:25 10° N 17:59:33 80° E 18:03:24 24° S
Cosmos 2292 Rocket 3.5 17:55:37 10° N 18:00:26 74° W 18:01:56 36° S
Okean 1-7 4.0 18:00:09 10° NNW 18:04:23 47° W 18:07:34 17° SSW
GENESIS II 4.2 18:02:42 10° SSW 18:06:39 81° WNW 18:10:42 10° NNE
Falcon 9 debris 3.5 18:07:25 10° NW 18:10:22 63° NW 18:10:22 63° NW
USA 234 3.4 18:07:55 33° SSE 18:11:06 71° SW 18:17:39 10° NW
Meteor 2-19 Rocket 4.3 18:05:18 10° N 18:11:28 76° E 18:13:53 39° SSE
COSMOS 2406 3.3 18:11:57 50° ESE 18:12:16 51° ESE 18:17:45 10° NNE
FALCON 9 DEB 3.8 18:12:25 10° NW 18:15:09 53° NW 18:15:09 53° NW
Resurs 01 Rocket 1.6 18:15:33 62° S 18:16:16 81° WSW 18:20:40 10° NNW
SL-24 R/B 4.2 18:15:40 61° SSE 18:16:28 78° E 18:21:16 10° N
ATLAS 3B R/B 4.2 18:12:25 10° NW 18:18:09 30° WSW 18:23:51 11° SSW
CZ-3B R/B 3.5 18:00:05 10° W 18:22:18 57° SSW 18:24:30 43° SSE
Cosmos 773 Rocket 4.2 18:18:09 10° NNW 18:23:15 65° WSW 18:24:35 46° SSW
H-2A R/B 3.0 18:23:48 21° SSW 18:26:45 41° W 18:31:29 10° NNW
ASTEX 1 3.2 18:23:31 10° N 18:28:22 79° ENE 18:28:22 79° ENE
CZ-2C R/B 2.6 18:28:17 10° NNE 18:33:04 65° ENE 18:33:04 65° ENE
MetOp-A 4.5 18:33:24 45° SSW 18:34:50 61° W 18:40:07 10° NNW
Okean 3 4.3 18:36:44 10° NNW 18:39:52 48° NNW 18:39:52 48° NNW
ASTRO E2 4.4 18:37:58 10° W 18:39:58 28° W 18:39:58 28° W
CZ-2C R/B 4.3 18:41:24 41° S 18:43:45 83° W 19:13:40 10° N
Cosmos 1386 Rocket 4.4 18:38:24 10° N 18:44:18 67° ENE 18:44:18 67° ENE
Cosmos 923 Rocket 4.4 18:39:53 10° N 18:44:17 54° NNE 18:44:17 54° NNE
Meteor 2-4 Rocket 3.7 18:42:01 10° N 18:46:42 68° NNE 18:46:42 68° NNE
Milstar 3 4.3 18:25:53 10° W 18:49:12 76° S 18:54:27 45° ESE
Meteor 1-11 Rocket 3.7 18:51:00 87° WNW 18:51:00 87° WNW 18:56:57 10° N
Cosmos 1680 Rocket 4.3 18:52:55 10° N 18:56:33 42° NNE 18:56:33 42° NNE
Hubble Space Telescope 3.5 18:55:36 10° WSW 18:56:09 13° WSW 18:56:09 13° WSW
Terra 4.0 19:07:43 17° NNE 19:07:43 17° NNE 19:09:03 10° N
Cosmos 2315 Rocket 4.3 19:09:06 57° NNE 19:09:06 57° NNE 19:14:06 10° N
Milstar 3 Cent rocket 4.0 18:52:00 10° W 19:14:41 76° S 19:17:47 58° ESE
ERS-1 Rocket 4.3 19:18:25 35° N 19:18:25 35° N 19:21:16 10° NNW
Cosmos 2082 Rocket 4.4 19:34:45 16° NNE 19:34:45 16° NNE 19:35:48 10° NNE
Cosmos 1833 Rocket 4.5 19:40:09 25° N 19:40:09 25° N 19:42:26 10° NNE
Cosmos 1980 Rocket 4.4 20:11:42 10° N 20:13:25 19° N 20:13:25 19° N
Centaur D-1A AC-31 4.4 22:36:10 38° ESE 22:36:10 38° ESE 23:04:53 10° ENE
Centaur D-1A AC-31 4.4 22:36:09 38° ESE 22:36:09 38° ESE 23:04:53 10° ENE
CZ-2D R/B 4.2 23:06:46 10° NNE 23:08:45 23° NNE 23:08:45 23° NNE
Cosmos 2227 Rocket 4.0 23:25:00 27° NE 23:25:00 27° NE 23:27:44 10° NE
ADEOS II 4.1 23:26:26 10° NE 23:29:04 23° ENE 23:29:04 23° ENE
Cosmos 2297 Rocket 3.6 23:41:21 35° NE 23:41:21 35° NE 23:44:37 10° NNE
ATLAS 2AS CENTAUR R/B 4.4 23:33:09 10° NNW 23:39:44 31° NE 23:45:49 10° ESE
ARIANE 5 R/B 4.1 23:41:14 10° NNE 23:44:18 32° NE 23:44:18 32° NE
Cosmos 2219 Rocket 4.4 23:43:22 10° NNW 23:44:21 16° NNW 23:44:21 16° NNW
SL-16 R/B 3.9 23:54:28 29° NNW 23:54:28 29° NNW 23:57:22 10° NNW
